OK1CMJ-5 Weather Reports


time (UTC)temp
F
wind
direction
speed
knots
gust
knots
rain 1hr
in
rain 24hr
in
rain mn
in
humidity
%
barometer
mb
20260901140550 70 294 1.7 7.0 0.00 0.02 0.01 11 1023.4
20260901135650 71 290 3.5 7.0 0.00 0.02 0.01 10 1023.4
20260901134750 73 298 0.9 7.0 0.00 0.02 0.01 10 1023.6
20260901133849 76 317 1.7 7.0 0.00 0.02 0.01 10 1023.3
20260901132050 73 246 0.9 5.2 0.00 0.02 0.01 10 1023.5
20260901131149 75 290 0.9 6.1 0.00 0.02 0.01 10 1023.4
20260901130249 77 270 1.7 6.1 0.00 0.02 0.01 10 1023.5
20260901125349 76 295 1.7 7.0 0.00 0.02 0.01 10 1023.4
20260901124450 76 325 0.9 7.0 0.00 0.02 0.01 10 1023.6
20260901123549 75 1 0.0 6.1 0.00 0.02 0.01 10 1023.7
20260901122650 74 338 1.7 3.5 0.00 0.02 0.01 10 1023.7
20260901121749 69 303 0.0 2.6 0.00 0.02 0.01 12 1023.8
20260901120849 69 181 0.0 3.5 0.00 0.02 0.01 14 1023.9
20260901115949 69 357 0.0 4.3 0.00 0.02 0.01 14 1023.9
20260901115049 69 311 0.9 4.3 0.00 0.02 0.01 14 1024.0
20260901114149 70 314 0.0 3.5 0.00 0.02 0.01 13 1024.1
20260901112349 71 314 0.0 7.0 0.00 0.02 0.01 12 1024.1
20260901111449 74 304 0.9 8.7 0.00 0.02 0.01 10 1024.0
20260901110550 75 283 1.7 5.2 0.00 0.02 0.01 10 1024.0
20260901105649 73 319 0.9 7.8 0.00 0.02 0.01 11 1024.0
20260901104749 72 341 1.7 7.0 0.00 0.02 0.01 13 1023.9
20260901103849 71 347 2.6 7.0 0.00 0.02 0.01 13 1024.0
20260901102949 71 346 0.9 9.6 0.00 0.02 0.01 14 1024.1
20260901102049 71 310 1.7 9.6 0.00 0.02 0.01 12 1023.9
20260901101149 71 313 1.7 4.3 0.00 0.02 0.01 14 1024.0
20260901100249 70 330 1.7 7.0 0.00 0.02 0.01 17 1023.9
20260901094449 70 306 1.7 9.6 0.00 0.02 0.01 17 1023.9
20260901093549 70 318 1.7 7.0 0.00 0.02 0.01 18 1023.8
20260901092649 70 300 0.0 6.1 0.00 0.02 0.01 17 1024.1
20260901091749 70 285 0.0 11.3 0.00 0.02 0.01 17 1024.0
20260901085949 69 321 0.9 7.8 0.00 0.02 0.01 21 1023.8
20260901085049 69 342 2.6 7.8 0.00 0.02 0.01 20 1024.0
20260901084149 69 325 0.9 6.1 0.00 0.02 0.01 19 1024.0
20260901083249 68 302 1.7 7.0 0.00 0.02 0.01 22 1023.8
20260901082349 69 316 1.7 10.4 0.00 0.02 0.01 22 1023.6
20260901081450 69 323 1.7 8.7 0.00 0.04 0.01 22 1023.9
20260901080549 69 204 1.7 9.6 0.00 0.04 0.01 23 1023.6
20260901075649 70 330 3.5 9.6 0.00 0.04 0.01 21 1023.6
20260901074749 69 327 3.5 8.7 0.00 0.04 0.01 25 1023.4
20260901073849 68 333 1.7 8.7 0.00 0.04 0.01 29 1023.3
20260901072949 67 307 3.5 9.6 0.00 0.04 0.01 29 1023.4
20260901072049 67 303 1.7 9.6 0.00 0.04 0.01 30 1023.1
20260901071149 67 289 1.7 9.6 0.00 0.04 0.01 32 1023.0
20260901070249 66 266 3.5 8.7 0.00 0.04 0.01 35 1023.2
20260901065349 66 288 0.9 7.8 0.00 0.04 0.01 36 1023.2
20260901064449 66 303 0.9 7.8 0.00 0.05 0.01 38 1023.0
20260901063549 65 302 1.7 7.8 0.00 0.07 0.01 40 1023.0
20260901062649 64 306 1.7 9.6 0.00 0.11 0.01 41 1023.0
20260901061749 64 303 1.7 7.0 0.00 0.13 0.01 42 1022.9
20260901060849 65 278 1.7 7.0 0.00 0.21 0.01 44 1022.9
20260901055949 64 294 1.7 7.8 0.00 0.21 0.01 46 1022.9
20260901055049 64 327 1.7 7.0 0.00 0.33 0.01 48 1022.7
20260901054149 64 329 1.7 5.2 0.00 0.40 0.01 50 1022.7
20260901053249 63 319 0.9 8.7 0.00 0.40 0.01 53 1022.7
20260901051449 60 317 2.6 7.0 0.00 0.40 0.01 62 1022.7
20260901050549 58 314 0.9 4.3 0.00 0.40 0.01 66 1022.6
20260901044749 58 320 0.9 3.5 0.00 0.40 0.01 67 1022.5
20260901043849 57 314 0.0 3.5 0.00 0.40 0.01 68 1022.5
20260901042949 57 316 0.9 3.5 0.00 0.40 0.01 68 1022.6
20260901041149 56 341 0.0 5.2 0.00 0.40 0.01 67 1022.4
20260901040249 56 331 0.9 4.3 0.00 0.40 0.01 67 1022.3
20260901034449 56 322 0.9 5.2 0.00 0.40 0.01 66 1022.4
20260901033549 56 309 1.7 5.2 0.00 0.40 0.01 66 1022.2
20260901031749 56 305 0.9 3.5 0.00 0.40 0.01 64 1022.1
20260901030849 56 337 0.9 3.5 0.00 0.40 0.01 63 1022.3
20260901025949 56 313 0.9 3.5 0.00 0.40 0.01 62 1022.1
20260901025049 56 302 0.0 3.5 0.00 0.40 0.01 61 1022.1
20260901024149 56 293 1.7 3.5 0.00 0.40 0.01 59 1022.2
20260901023249 56 300 1.7 3.5 0.00 0.40 0.01 57 1022.2
20260901022349 56 314 1.7 3.5 0.00 0.40 0.01 56 1022.2
20260901021449 56 314 0.0 1.7 0.01 0.40 0.01 54 1022.1
20260901020549 57 202 0.0 1.7 0.01 0.40 0.01 54 1022.1
20260901015649 57 83 0.0 1.7 0.01 0.40 0.01 54 1022.1
20260901014749 57 14 0.9 2.6 0.01 0.40 0.01 54 1022.1
20260901013849 57 1 0.0 2.6 0.01 0.40 0.01 53 1022.0
20260901012949 57 3 0.9 2.6 0.01 0.40 0.01 52 1021.9
20260901012049 58 322 0.0 5.2 0.01 0.40 0.01 51 1021.9
20260901011149 58 250 1.7 5.2 0.00 0.39 0.00 50 1022.0
20260901010249 58 272 0.0 5.2 0.00 0.39 0.00 48 1022.0
20260901005349 58 275 0.9 3.5 0.00 0.39 0.00 47 1021.9
20260901004449 59 284 0.9 3.5 0.00 0.39 0.00 46 1021.8
20260901003549 59 302 1.7 3.5 0.00 0.39 0.00 45 1021.9
20260901002649 59 272 0.9 3.5 0.00 0.39 0.00 45 1021.6
20260901001749 59 283 0.0 2.6 0.00 0.39 0.00 45 1021.9
20260831235949 59 284 0.9 4.3 0.00 0.39 0.00 45 1022.0
20260831235049 58 306 0.0 1.7 0.00 0.39 0.00 43 1022.0
20260831234149 58 346 0.0 1.7 0.00 0.39 0.00 42 1021.9
20260831233249 58 349 0.0 2.6 0.00 0.39 0.00 41 1022.0
20260831232348 59 314 0.0 2.6 0.00 0.39 0.00 40 1021.8
20260831230549 60 320 0.0 3.5 0.00 0.39 0.00 37 1022.0
20260831225649 60 1 0.0 3.5 0.00 0.39 0.00 37 1021.8
20260831224749 60 343 0.9 5.2 0.00 0.39 0.00 37 1021.8
20260831223848 60 310 1.7 5.2 0.00 0.39 0.00 37 1021.6
20260831222948 60 347 0.0 2.6 0.00 0.39 0.00 36 1021.6
20260831222049 61 277 0.9 4.3 0.00 0.39 0.00 35 1021.4
20260831221149 61 252 0.0 2.6 0.00 0.39 0.00 34 1021.4
20260831220249 62 196 0.0 2.6 0.00 0.39 0.00 33 1021.3
20260831215348 62 314 0.0 3.5 0.00 0.39 0.39 33 1021.3
20260831214449 62 294 0.9 4.3 0.00 0.39 0.39 34 1021.4
20260831213549 62 298 0.0 4.3 0.00 0.39 0.39 36 1021.3
20260831212648 62 294 0.9 6.1 0.00 0.39 0.39 40 1021.3
20260831211748 61 308 0.0 4.3 0.00 0.39 0.39 47 1021.1
20260831210849 60 314 0.0 3.5 0.00 0.39 0.39 52 1021.0
20260831205948 59 314 1.7 3.5 0.00 0.39 0.39 55 1020.8
20260831205048 60 314 0.0 1.7 0.00 0.39 0.39 55 1020.6
20260831203249 59 314 0.0 0.9 0.00 0.39 0.39 57 1020.4
20260831202348 59 314 0.0 0.9 0.00 0.39 0.39 57 1020.2
20260831201449 58 314 0.0 0.9 0.00 0.39 0.39 56 1020.1
20260831200548 58 314 0.0 1.7 0.01 0.39 0.39 55 1020.1
20260831195648 58 314 0.0 1.7 0.01 0.39 0.39 55 1020.1
20260831194749 59 314 0.0 1.7 0.01 0.39 0.39 55 1020.1
20260831193849 60 314 0.0 0.9 0.01 0.39 0.39 55 1020.0
20260831192949 60 319 0.0 1.7 0.01 0.39 0.39 56 1020.1
20260831192049 59 338 0.9 1.7 0.01 0.39 0.39 56 1020.0
20260831191149 58 351 0.0 1.7 0.01 0.39 0.39 55 1019.9
20260831190249 58 341 0.0 1.7 0.00 0.38 0.38 54 1019.8
20260831185349 58 315 0.0 1.7 0.00 0.38 0.38 53 1019.7
20260831184449 58 314 0.0 1.7 0.00 0.38 0.38 50 1020.0
20260831183548 59 314 0.0 1.7 0.00 0.38 0.38 46 1019.8
20260831182649 59 314 0.0 1.7 0.00 0.38 0.38 43 1019.5
20260831181749 60 314 0.0 1.7 0.00 0.38 0.38 40 1019.4
20260831180848 61 314 0.0 1.7 0.00 0.38 0.38 37 1019.3
20260831175948 62 315 0.0 1.7 0.00 0.38 0.38 35 1019.1
20260831175048 63 314 0.0 1.7 0.00 0.38 0.38 31 1019.3
20260831174148 64 314 0.0 0.9 0.00 0.38 0.38 29 1019.0
20260831173248 65 314 0.0 0.9 0.00 0.38 0.38 26 1019.0
20260831172348 66 314 0.0 0.9 0.00 0.38 0.38 23 1019.0
20260831171448 68 314 0.0 1.7 0.00 0.38 0.38 18 1018.8
20260831170548 69 314 0.0 1.7 0.00 0.38 0.38 15 1018.8
20260831165648 69 314 0.0 1.7 0.00 0.38 0.38 15 1018.6
20260831164748 70 318 0.0 2.6 0.00 0.38 0.38 14 1018.7
20260831163848 70 314 0.0 1.7 0.00 0.38 0.38 13 1018.8
20260831162948 71 339 0.0 1.7 0.00 0.38 0.38 11 1018.8
20260831162048 72 1 0.0 3.5 0.00 0.38 0.38 10 1018.8
20260831161148 74 327 0.9 6.1 0.00 0.38 0.38 10 1018.7
20260831160248 76 291 0.9 6.1 0.00 0.38 0.38 10 1018.9
20260831155348 76 310 0.9 3.5 0.00 0.38 0.38 10 1018.9
20260831154448 75 296 0.9 3.5 0.00 0.38 0.38 10 1018.8
20260831153548 78 309 1.7 4.3 0.00 0.38 0.38 10 1018.9
20260831152648 78 332 1.7 5.2 0.00 0.38 0.38 10 1018.9
20260831150848 78 265 0.9 3.5 0.00 0.38 0.38 10 1019.1
20260831145948 77 257 0.0 5.2 0.00 0.38 0.38 10 1019.1
20260831145048 78 272 1.7 7.0 0.00 0.38 0.38 10 1019.1
20260831144148 76 198 0.0 3.5 0.00 0.38 0.38 10 1019.1
20260831143248 76 324 0.0 7.0 0.00 0.38 0.38 10 1019.3
20260831141448 76 318 1.7 5.2 0.00 0.38 0.38 10 1019.2